Orbital Elements at Epoch 2459000.5 (2020-May-31.0) TDB
Reference: JPL 13 (heliocentric ecliptic J2000)
Element | Value | Uncertainty (1-sigma) | Units |
e | .09499486727178524 | 4.8252e-08 | |
a | 2.265386324394102 | 1.3065e-08 | au |
q | 2.050186251188967 | 1.1034e-07 | au |
i | 3.36868940134114 | 4.9594e-06 | deg |
node | 90.16575382657388 | 8.9748e-05 | deg |
peri | 55.54553561814167 | 9.3787e-05 | deg |
M | 259.5875589057694 | 2.7887e-05 | deg |
tp | 2459347.873642789635 (2021-May-13.37364279) | 9.7202e-05 | TDB |
period | 1245.408537443215 3.41 | 1.0774e-05 2.95e-08 | d yr |
n | .289061773046031 | 2.5006e-09 | deg/d |
Q | 2.480586397599237 | 1.4306e-08 | au |
|
| | Orbit Determination Parameters
Additional Information
|